Flag for Turkey Weather past 2 weeks in Mersin, Turkey

57 °F

Passing clouds.

Feels Like: 57 °F
Forecast: 52 / 66 °F
Wind: 5 mph from North

Location: Adana / Sakirpasa

Current Time: Nov 26, 2015 at 2:06:28 AM

Latest Report: Nov 26, 2015 at 1:20 AM

Visibility: N/A

Pressure: 30.01 "Hg

Humidity: 33%

Dew point: 28 °F

Location of MersinLocation

Historic Weather in Mersin — Graph


Mersin temperature yesterday

Maximum temperature yesterday: 75 °F (at 12:20 PM)
Minimum temperature yesterday: 45 °F (at 6:20 AM)
Average temperature yesterday: 60 °F

Past Weeks' High & Low Weather Summary

High81 °F (Nov 13, 2:50 PM)87% (Nov 20, 5:20 AM)30.24 "Hg (Nov 20, 5:20 AM)
Low43 °F (Nov 11, 3:50 AM)9% (Nov 23, 2:20 PM)29.74 "Hg (Nov 16, 12:50 PM)
Average61 °F45%30.06 "Hg
* Reported Nov 11 12:50 AM — Nov 26 12:50 AM, Mersin, Weather by CustomWeather, © 2015

Note: Actual official high and low records may vary slightly from our data, if they occured in-between our weather recording intervals... More about our weather records


Mersin weather history for previous 24 hours

Time TempWeatherWind HumidityBarometerVisibility
12:50 AM
Thu, Nov 26
57 °FPassing clouds.3 mph36%30.01 "HgN/A
12:20 AM55 °FPassing clouds.7 mph44%30.01 "HgN/A
11:50 PM
Wed, Nov 25
57 °FPassing clouds.5 mph41%30.04 "HgN/A
11:20 PM57 °FPassing clouds.3 mph41%30.04 "HgN/A
10:50 PM61 °FPassing clouds.5 mph27%30.04 "HgN/A
10:20 PM61 °FPassing clouds.2 mph31%30.04 "Hg4 mi
9:50 PM61 °FPassing clouds.5 mph34%30.04 "Hg3 mi
9:20 PM61 °FPassing clouds.1 mph31%30.04 "Hg2 mi
8:50 PM61 °FPartly cloudy.No wind36%30.04 "Hg2 mi
8:20 PM59 °FPassing clouds.5 mph45%30.04 "Hg2 mi
7:50 PM63 °FPassing clouds.6 mph39%30.04 "Hg2 mi
7:20 PM61 °FPassing clouds.No wind42%30.04 "Hg2 mi
6:50 PM61 °FPassing clouds.No wind39%30.04 "Hg2 mi
6:20 PM61 °FPassing clouds.1 mph39%30.04 "Hg2 mi
5:50 PM61 °FPassing clouds.No wind42%30.04 "Hg2 mi
5:20 PM63 °FPassing clouds.No wind34%30.04 "Hg2 mi
4:50 PM64 °FPassing clouds.1 mph34%30.04 "HgN/A
4:20 PM66 °FBroken clouds.3 mph35%30.04 "HgN/A
3:50 PM68 °FBroken clouds.5 mph30%30.04 "HgN/A
3:20 PM72 °FPartly sunny.1 mph23%30.04 "HgN/A
2:50 PM72 °FBroken clouds.No wind17%30.04 "HgN/A
2:20 PM75 °FBroken clouds.No wind14%30.07 "HgN/A
1:50 PM75 °FBroken clouds.2 mph18%30.04 "HgN/A
1:20 PM73 °FBroken clouds.2 mph15%30.04 "HgN/A
12:50 PM75 °FPartly sunny.3 mph14%30.07 "HgN/A
12:20 PM75 °FPassing clouds.2 mph12%30.09 "HgN/A
11:50 AM73 °FPassing clouds.5 mph11%30.09 "HgN/A
11:20 AM73 °FPassing clouds.3 mph13%30.12 "HgN/A
10:50 AM72 °FPassing clouds.5 mph15%30.12 "HgN/A
10:20 AM70 °FPassing clouds.3 mph17%30.12 "HgN/A
9:50 AM68 °FPassing clouds.2 mph23%30.15 "HgN/A
8:50 AM59 °FScattered clouds.No wind45%30.15 "HgN/A
8:20 AM54 °FBroken clouds.No wind58%30.15 "HgN/A
7:50 AM52 °FScattered clouds.1 mph54%30.15 "HgN/A
7:20 AM46 °FScattered clouds.No wind66%30.12 "HgN/A
6:50 AM45 °FScattered clouds.No wind71%30.12 "HgN/A
6:20 AM45 °FPassing clouds.No wind71%30.12 "HgN/A
5:50 AM46 °FPassing clouds.2 mph62%30.12 "HgN/A
5:20 AM46 °FPassing clouds.No wind62%30.12 "HgN/A
4:50 AM46 °FPassing clouds.No wind62%30.12 "HgN/A
4:20 AM48 °FPassing clouds.No wind58%30.12 "HgN/A
3:50 AM48 °FPassing clouds.No wind54%30.12 "HgN/A
3:20 AM48 °FPassing clouds.5 mph54%30.12 "HgN/A
2:50 AM48 °FPassing clouds.No wind54%30.12 "HgN/A
Weather by CustomWeather, © 2015

See weather overviewHow to use our weather pages